Temperature
20 21 19 18 17 16 16 16 16 16 16 15 15 15 15 15 14 14 14 14 14 14 14 14 14 14 13 13 13 13 13 14 14 14 14 14 14 14 14 14 13 12 12
22 21 19 18 17 16 16 16 16 16 16 15 15 14 14 14 14 14 13 13 13 13 13 13 14 14 13 13 13 13 13 14 14 14 13 13 13 14 14 14 14 13 13
21 21 19 18 17 16 16 16 16 16 15 15 14 14 13 13 13 13 13 13 13 13 13 13 13 13 13 13 13 13 13 14 14 13 13 12 13 13 14 14 14 13 13
21 21 19 18 17 16 16 16 16 16 15 15 14 13 13 13 13 13 13 13 14 14 13 13 13 13 13 13 13 13 14 14 13 13 12 12 13 13 14 14 14 13 13
20 20 20 18 17 16 16 16 16 16 15 15 14 13 13 13 13 13 14 14 14 14 14 14 13 13 13 13 14 14 14 14 13 13 12 13 13 13 14 14 14 13 13
19 19 19 18 17 16 16 16 16 16 15 14 14 13 13 13 13 13 14 14 14 15 14 14 14 14 14 14 14 14 14 14 13 12 12 12 13 13 14 13 13 13 13
18 19 19 18 17 16 16 16 16 16 15 14 14 13 13 13 13 13 14 14 14 15 14 14 14 14 14 14 14 14 14 14 13 12 12 12 13 13 13 13 13 13 13
18 18 18 17 17 16 16 16 16 16 16 15 14 13 13 13 13 13 14 14 14 15 14 14 14 14 14 14 14 14 14 14 13 12 12 12 12 13 13 13 13 13 13
18 18 18 17 17 16 16 16 15 16 15 15 14 14 13 13 13 13 14 14 14 14 14 14 14 14 14 14 14 14 14 13 13 12 12 12 12 12 12 13 13 13 13
18 17 18 17 17 16 16 16 15 15 15 15 15 14 14 13 13 13 14 14 14 14 14 14 14 14 14 13 13 13 13 13 12 12 12 12 12 12 12 12 12 12 12
18 17 17 17 16 16 16 15 15 15 15 15 15 15 14 14 13 13 14 14 14 14 14 14 13 13 13 13 13 13 13 12 12 12 12 12 12 12 12 12 12 12 12
18 17 16 16 16 16 15 15 15 15 15 15 15 15 14 13 13 13 14 14 14 14 13 13 13 13 13 12 12 12 12 12 12 12 12 12 12 12 12 12 12 12 12
18 18 17 16 16 15 15 15 15 15 15 15 14 15 14 13 13 13 13 13 13 13 13 13 12 12 12 12 12 12 12 12 12 12 12 12 11 11 11 11 11 11 11
19 18 17 17 16 16 15 15 15 15 14 14 14 14 14 13 13 13 13 13 13 13 12 12 12 12 12 13 13 13 13 12 12 12 12 11 11 11 10 10 10 10 10
20 19 18 17 17 16 15 15 15 15 15 14 14 14 13 13 13 13 13 12 12 12 12 12 12 12 12 13 13 13 13 12 12 11 11 11 10 10 10 9 9 9 9
20 19 19 18 17 16 16 15 15 15 14 14 14 14 13 13 13 13 12 12 12 12 12 12 12 12 13 13 13 12 12 12 11 11 10 10 10 9 9 9 9 8 8
20 20 19 19 18 17 16 16 15 15 15 14 14 14 13 13 13 13 13 12 12 12 12 12 12 12 13 13 12 12 12 11 11 10 9 9 9 9 8 8 8 8 8
20 20 19 19 18 17 17 16 16 15 15 14 14 14 13 13 13 13 13 12 12 12 12 12 12 12 12 12 12 12 11 11 11 9 9 8 8 8 8 8 8 8 8
19 19 19 19 18 18 17 16 16 15 15 14 14 14 13 13 13 13 13 12 12 12 12 12 12 12 12 12 12 12 11 11 10 9 8 8 8 8 7 7 7 7 7
19 19 19 19 19 18 17 16 15 15 15 14 14 13 13 13 13 13 13 12 12 12 12 12 12 12 12 12 11 11 11 10 10 9 8 8 7 7 7 7 7 7 7
19 19 19 19 19 18 17 16 16 15 15 14 14 13 13 13 13 13 13 12 12 12 12 12 12 11 11 11 11 11 10 9 8 8 8 7 7 6 6 6 6 6 6
18 18 19 19 18 18 18 17 17 15 14 14 14 13 13 13 13 13 13 12 12 12 11 11 11 11 11 11 10 10 9 8 7 7 7 7 6 6 5 5 5 5 5
18 18 18 18 18 17 17 16 15 15 14 14 13 13 13 13 13 13 12 12 12 11 11 11 11 11 10 10 9 9 9 7 7 7 6 6 5 5 5 4 4 4 4
17 17 17 17 17 17 16 16 16 16 15 14 14 13 13 13 12 12 12 12 11 11 11 11 10 10 10 9 9 8 7 7 6 6 6 5 4 4 3 3 3 3 3
17 17 17 17 17 17 16 16 16 16 16 15 14 13 12 12 12 12 11 11 11 10 10 10 10 10 9 9 8 7 7 6 4 4 4 4 4 4 3 3 2 2 1
16 16 16 16 16 16 15 15 15 15 15 15 14 12 12 12 12 11 11 10 10 10 10 10 9 9 9 8 7 6 6 5 4 2 2 3 3 3 3 3 2 1 0
Wind_Speed
13 17 21 20 19 18 17 16 16 15 15 15 15 15 14 13 12 11 11 10 10 10 9 7 6 8 11 12 13 13 12 10 8 6 4 4 5 7 8 7 8 7 7
17 20 21 21 19 18 17 16 15 14 14 14 14 14 13 12 12 11 10 10 10 10 11 11 10 12 14 13 13 12 10 8 6 4 4 2 3 6 7 8 8 7 6
19 20 21 21 20 19 17 16 15 13 13 12 13 13 13 12 12 11 10 10 10 11 11 13 14 15 15 14 12 10 9 7 4 6 9 3 6 7 7 7 6 5 5
19 20 20 21 20 19 17 16 14 13 12 12 13 13 13 13 12 11 11 11 11 12 13 14 14 14 13 12 10 8 7 5 5 8 6 6 7 7 6 6 6 6 5
17 18 22 22 21 19 17 15 14 13 12 13 13 13 13 13 12 12 11 11 11 12 12 12 12 11 10 9 8 7 5 4 7 10 4 6 10 8 6 6 6 6 6
16 18 23 22 21 19 18 16 14 13 13 13 13 13 12 12 12 12 12 12 11 11 11 11 10 9 8 7 6 5 4 6 10 7 3 9 10 8 6 6 6 6 6
16 18 21 23 21 20 18 16 15 14 13 13 13 12 11 11 12 12 12 11 10 10 9 9 8 7 6 5 4 4 4 6 11 6 5 11 9 7 6 7 8 8 7
16 17 19 21 22 20 18 17 15 14 14 13 12 11 10 10 11 12 12 10 9 8 8 7 6 6 5 4 3 3 3 6 8 6 7 12 9 7 7 8 9 9 10
16 16 15 17 19 20 19 18 16 15 14 13 12 10 10 10 11 12 12 10 8 7 6 6 5 5 4 3 2 2 4 7 9 6 9 11 9 8 8 9 10 11 11
14 16 14 15 16 16 17 18 17 15 14 13 12 12 11 11 12 13 13 10 8 7 6 5 5 4 3 2 0 2 6 9 7 5 11 10 10 8 9 10 11 12 13
11 14 15 14 14 16 16 17 18 16 15 14 13 13 12 12 13 13 13 11 9 7 6 5 4 3 3 3 2 3 6 6 4 10 11 9 8 8 9 11 12 12 13
8 11 13 14 13 13 14 15 14 14 14 14 14 14 12 12 12 14 15 13 11 9 7 6 5 4 4 4 4 3 4 8 8 11 10 9 8 8 10 11 12 12 13
10 9 10 13 13 12 8 12 11 12 13 14 16 17 14 9 12 13 11 10 10 10 8 7 6 2 3 4 2 4 7 8 9 12 11 11 10 9 10 11 12 12 12
14 13 10 11 12 12 9 8 8 7 9 8 12 17 11 6 6 8 7 10 10 8 6 5 3 5 4 5 6 8 8 7 8 11 12 13 12 10 10 11 11 11 12
11 15 13 10 12 12 11 9 8 7 7 9 10 13 12 5 5 4 4 6 7 8 6 4 4 5 5 6 6 6 5 5 5 10 12 13 13 11 10 11 11 11 12
8 12 14 13 11 11 10 9 8 7 8 10 9 11 13 10 5 4 4 4 5 7 7 6 5 4 4 4 4 4 4 5 5 9 13 13 12 11 10 9 10 11 11
8 9 12 14 13 12 12 11 9 7 9 6 9 13 13 12 9 6 5 5 6 9 8 7 5 5 3 2 3 3 3 3 4 4 11 12 11 9 7 7 8 10 11
9 8 11 13 13 13 11 11 9 7 8 7 10 12 14 13 13 8 6 5 8 9 6 4 3 4 4 3 3 3 2 2 1 3 7 10 9 7 4 4 6 9 11
11 10 10 11 12 12 11 10 9 8 8 7 9 9 12 13 14 10 6 6 9 6 4 5 5 4 3 3 3 2 1 1 1 3 3 7 7 4 1 2 5 8 11
11 11 11 12 13 11 10 8 7 7 7 6 7 8 12 12 15 12 7 7 9 6 6 5 5 4 3 2 3 2 1 2 1 2 2 3 6 5 3 2 4 6 10
11 11 11 12 13 11 10 10 10 9 6 5 5 9 12 14 15 11 8 7 7 6 6 6 5 5 3 3 2 2 1 2 3 3 2 1 2 4 3 1 3 5 8
12 11 10 10 12 13 11 11 8 7 5 4 5 7 12 13 14 12 10 8 8 7 7 6 5 4 2 3 2 1 2 2 2 3 3 3 2 1 0 2 4 6 8
13 12 11 11 11 13 12 10 9 7 5 4 5 5 7 11 12 12 10 9 8 7 7 6 5 4 3 2 4 3 2 1 3 3 3 2 1 1 2 3 6 7 8
13 12 11 11 12 12 15 15 16 12 9 7 6 6 8 10 11 13 12 10 9 7 8 6 5 4 4 3 2 2 2 3 0 4 4 3 2 3 4 4 6 8 10
10 11 12 11 12 13 16 18 17 11 8 10 11 12 10 8 9 11 12 9 9 8 8 7 5 5 4 3 2 2 1 0 2 3 5 5 4 4 5 5 6 9 11
7 7 9 11 11 12 15 17 15 15 16 18 16 13 10 8 9 10 11 9 9 8 8 7 6 6 5 4 2 1 1 1 1 1 3 4 5 5 6 6 6 8 10
Wind_Direction
128 136 144 139 134 129 126 123 120 118 117 118 117 112 107 101 96 91 85 76 67 60 57 59 79 104 117 107 97 88 79 71 62 51 45 54 62 48 38 24 9 33 56
132 139 143 139 135 131 127 124 122 121 122 122 121 118 111 105 99 93 85 79 70 65 59 60 80 94 103 101 95 86 76 65 48 5 330 289 98 61 39 26 20 22 27
132 139 142 138 136 132 128 125 123 124 126 128 127 123 117 110 103 95 88 83 77 73 68 68 80 86 88 90 87 80 70 58 18 333 313 262 134 65 41 25 16 14 7
133 141 143 139 137 134 130 127 125 127 129 131 131 129 122 114 105 96 92 89 85 82 79 78 78 82 83 83 80 73 63 39 339 322 335 63 88 62 40 21 8 1 352
136 143 140 142 139 136 133 131 130 130 131 132 134 131 126 118 110 100 99 96 93 90 88 86 85 84 83 81 77 70 56 5 322 301 289 89 86 55 35 17 2 350 339
139 136 143 143 142 140 138 136 135 135 135 135 135 134 132 126 117 110 108 104 100 96 92 91 90 87 84 81 76 64 36 341 316 306 51 82 79 46 25 11 2 350 337
139 135 147 145 145 144 143 143 143 143 141 139 139 139 139 134 126 121 119 113 108 101 95 92 90 88 84 77 66 47 10 324 302 298 73 81 67 40 20 17 14 5 353
134 136 148 149 149 150 150 150 150 151 151 150 149 146 145 142 136 133 129 123 116 107 98 93 89 88 83 72 52 24 334 308 313 338 80 82 55 31 25 26 23 23 24
134 139 148 155 155 156 156 157 158 159 159 160 158 147 138 138 143 144 139 133 124 113 104 96 91 91 86 73 47 348 307 299 295 307 72 66 43 32 32 34 33 36 36
139 145 155 161 163 163 163 163 163 164 164 163 157 143 139 144 150 153 146 140 131 122 114 105 99 101 109 114 121 293 299 298 287 53 72 56 41 34 39 46 47 48 47
148 152 161 165 168 168 169 170 166 166 168 163 155 156 161 167 162 159 150 144 141 137 130 126 131 154 170 184 215 275 297 307 41 77 65 52 45 47 57 59 55 50 47
164 164 165 169 171 170 172 167 171 171 172 175 173 175 193 197 166 149 147 150 152 151 148 158 178 213 214 193 225 280 353 8 36 77 61 59 60 65 67 65 58 50 46
181 186 174 173 172 172 167 167 174 176 175 194 183 182 200 169 134 140 150 155 163 166 172 182 196 197 83 81 26 36 40 26 43 73 62 67 70 73 71 65 56 48 40
178 183 187 179 173 175 170 174 173 175 175 190 182 179 186 155 156 164 165 171 172 165 156 149 131 97 61 57 46 42 33 32 54 83 74 75 76 74 70 62 52 42 34
184 176 183 185 178 178 174 176 176 175 175 179 175 177 169 150 167 152 142 142 137 136 129 107 83 75 51 42 42 48 35 36 55 89 91 84 82 76 68 58 47 36 25
203 178 176 181 186 179 177 176 179 177 173 173 170 178 170 164 162 143 135 121 113 108 107 100 88 81 64 48 24 25 31 38 56 98 113 99 91 82 68 52 39 26 15
216 189 177 179 185 184 181 179 180 177 173 170 170 180 174 165 153 139 134 126 120 118 106 94 87 80 69 31 14 32 41 48 39 106 128 124 113 98 77 51 27 12 2
221 208 188 179 182 185 184 179 177 177 174 173 172 177 173 162 151 137 129 126 122 112 102 91 81 81 67 31 6 4 5 58 19 91 114 126 122 110 93 47 13 359 350
213 211 195 176 178 183 181 174 170 174 175 172 170 169 168 159 146 132 125 124 118 105 99 96 65 71 65 21 321 287 342 54 86 92 101 116 111 104 69 313 355 347 340
217 209 196 180 178 177 171 164 162 173 178 171 164 160 157 146 136 128 127 123 116 111 108 107 107 79 61 359 311 308 169 116 137 149 137 136 157 181 222 325 1 350 338
223 214 203 188 180 175 172 173 174 177 169 158 152 147 141 136 134 133 130 125 125 127 132 130 120 104 55 1 357 336 288 200 199 174 172 170 207 203 203 304 354 350 333
232 218 209 195 183 178 177 175 167 146 126 111 112 118 127 132 135 138 134 133 128 123 114 110 109 111 82 37 45 13 354 326 293 224 182 201 235 218 228 313 334 322 316
232 224 214 203 190 179 166 152 131 111 99 104 111 115 123 129 132 135 133 129 126 123 121 115 112 115 131 81 57 92 106 281 320 311 260 223 218 259 280 296 299 295 302
227 223 216 204 194 178 165 161 162 168 162 160 141 126 120 124 131 132 130 127 122 120 118 116 110 112 117 124 100 68 115 127 104 316 318 320 349 326 303 295 294 288 287
233 219 211 204 194 178 168 167 170 167 141 132 130 130 127 127 127 128 127 124 122 120 116 112 107 99 104 109 107 84 67 68 202 216 281 304 323 314 317 301 288 280 275
249 235 210 196 187 173 165 165 168 159 147 146 147 144 140 136 130 126 126 122 119 119 119 121 116 98 95 94 87 99 128 180 282 262 275 298 296 289 300 286 278 272 269
Height
1495 1497 1499 1502 1504 1506 1508 1510 1512 1514 1515 1517 1517 1518 1519 1520 1520 1521 1521 1522 1522 1523 1524 1525 1526 1528 1529 1530 1531 1532 1532 1533 1533 1533 1533 1533 1533 1533 1533 1533 1533 1534 1534
1493 1496 1499 1501 1504 1506 1508 1510 1512 1514 1515 1516 1517 1518 1519 1519 1520 1520 1521 1521 1522 1523 1524 1525 1527 1528 1529 1530 1531 1532 1532 1533 1533 1533 1533 1533 1533 1533 1533 1533 1533 1533 1534
1493 1496 1499 1501 1504 1506 1508 1510 1512 1513 1514 1516 1517 1518 1519 1519 1520 1520 1521 1521 1522 1523 1524 1526 1527 1529 1530 1531 1532 1533 1533 1533 1534 1534 1533 1533 1533 1534 1534 1533 1533 1533 1534
1493 1496 1498 1501 1504 1506 1508 1510 1512 1513 1514 1515 1517 1518 1519 1520 1521 1521 1521 1522 1523 1524 1525 1527 1528 1530 1531 1532 1533 1533 1534 1534 1534 1534 1534 1535 1534 1534 1534 1534 1533 1533 1534
1493 1496 1498 1501 1504 1506 1508 1510 1511 1513 1514 1515 1517 1518 1520 1521 1521 1522 1522 1523 1524 1525 1526 1527 1529 1531 1532 1533 1534 1534 1534 1534 1534 1534 1535 1535 1535 1535 1534 1534 1534 1534 1534
1494 1495 1499 1501 1504 1506 1508 1510 1511 1512 1514 1515 1517 1519 1520 1522 1522 1523 1523 1524 1525 1526 1527 1528 1530 1531 1532 1533 1534 1534 1534 1535 1535 1535 1536 1536 1535 1535 1535 1534 1534 1534 1534
1494 1495 1499 1501 1504 1506 1508 1510 1511 1512 1514 1516 1517 1519 1521 1522 1523 1524 1525 1525 1526 1527 1528 1529 1530 1532 1533 1533 1534 1534 1535 1535 1535 1536 1537 1536 1536 1535 1535 1534 1534 1534 1534
1495 1496 1499 1501 1504 1506 1508 1509 1511 1512 1514 1516 1517 1519 1521 1523 1524 1525 1525 1526 1527 1528 1529 1530 1531 1532 1533 1534 1534 1535 1535 1536 1536 1536 1536 1535 1535 1535 1534 1533 1533 1533 1533
1495 1496 1499 1501 1503 1505 1507 1509 1511 1512 1514 1515 1517 1519 1521 1523 1524 1525 1526 1527 1528 1529 1530 1531 1532 1533 1533 1534 1535 1535 1535 1536 1536 1536 1536 1535 1534 1534 1533 1532 1532 1532 1531
1495 1495 1498 1500 1502 1504 1506 1508 1510 1512 1514 1515 1517 1519 1521 1522 1524 1525 1526 1528 1529 1530 1530 1531 1532 1533 1534 1534 1535 1535 1535 1535 1536 1535 1534 1534 1533 1532 1531 1531 1530 1530 1529
1495 1495 1496 1498 1501 1503 1506 1508 1510 1512 1513 1515 1516 1518 1520 1522 1524 1525 1526 1528 1529 1530 1530 1531 1532 1533 1533 1534 1534 1534 1534 1534 1535 1533 1533 1532 1532 1531 1530 1529 1528 1528 1527
1494 1496 1496 1497 1500 1502 1504 1506 1508 1510 1512 1514 1515 1518 1520 1521 1523 1524 1526 1527 1528 1529 1530 1531 1532 1532 1532 1533 1533 1533 1533 1533 1533 1531 1530 1530 1529 1528 1527 1527 1526 1526 1525
1491 1494 1496 1497 1498 1500 1502 1504 1506 1508 1510 1512 1514 1517 1519 1521 1522 1523 1525 1526 1527 1528 1529 1530 1531 1531 1532 1532 1532 1532 1532 1531 1530 1528 1528 1527 1527 1526 1525 1524 1524 1523 1523
1487 1490 1493 1495 1497 1498 1500 1502 1504 1506 1508 1511 1513 1515 1518 1519 1521 1523 1524 1525 1526 1527 1528 1529 1530 1530 1531 1531 1531 1530 1529 1528 1527 1526 1525 1524 1524 1523 1522 1522 1521 1521 1520
1485 1486 1489 1492 1494 1496 1498 1500 1502 1504 1506 1509 1511 1514 1516 1517 1519 1521 1523 1524 1525 1526 1527 1528 1528 1529 1529 1529 1528 1528 1527 1526 1525 1523 1522 1521 1521 1521 1520 1519 1519 1518 1518
1483 1483 1485 1488 1491 1493 1495 1497 1499 1501 1504 1506 1508 1511 1513 1515 1518 1519 1521 1523 1524 1525 1525 1526 1526 1527 1527 1527 1526 1525 1524 1523 1522 1521 1519 1519 1518 1518 1518 1517 1516 1516 1515
1479 1481 1482 1484 1487 1489 1491 1493 1496 1498 1501 1503 1505 1508 1511 1513 1515 1517 1519 1520 1522 1523 1524 1524 1525 1525 1525 1525 1524 1523 1522 1521 1520 1519 1517 1516 1515 1515 1515 1515 1514 1513 1512
1474 1476 1478 1479 1482 1484 1487 1489 1492 1494 1497 1500 1502 1505 1508 1510 1513 1515 1517 1518 1519 1521 1522 1522 1523 1523 1523 1522 1521 1520 1519 1518 1517 1516 1515 1514 1513 1513 1513 1512 1512 1510 1509
1468 1471 1472 1474 1476 1479 1482 1485 1487 1490 1493 1496 1498 1501 1504 1507 1509 1511 1514 1516 1517 1518 1519 1520 1521 1521 1520 1520 1519 1518 1516 1515 1514 1514 1513 1512 1511 1511 1510 1509 1508 1507 1506
1461 1464 1466 1468 1471 1474 1477 1480 1482 1485 1488 1491 1494 1497 1500 1502 1505 1507 1510 1512 1514 1516 1517 1518 1518 1518 1518 1517 1516 1515 1514 1513 1512 1511 1511 1510 1509 1508 1508 1506 1505 1504 1502
1453 1456 1458 1460 1463 1467 1469 1472 1475 1479 1483 1486 1489 1492 1495 1498 1500 1503 1506 1509 1511 1513 1514 1515 1516 1516 1515 1514 1514 1512 1511 1510 1509 1509 1508 1508 1507 1506 1505 1503 1502 1500 1499
1445 1448 1451 1453 1456 1459 1462 1465 1469 1473 1477 1480 1484 1487 1490 1493 1496 1500 1502 1505 1507 1509 1511 1512 1513 1513 1512 1512 1511 1509 1509 1509 1507 1506 1505 1505 1504 1503 1502 1501 1499 1497 1494
1437 1440 1443 1447 1450 1452 1456 1459 1463 1466 1470 1474 1477 1481 1485 1489 1492 1496 1499 1501 1503 1506 1507 1509 1510 1510 1509 1508 1508 1508 1507 1506 1505 1504 1503 1502 1501 1500 1498 1497 1494 1492 1489
1430 1434 1436 1440 1443 1446 1449 1451 1454 1458 1461 1465 1469 1474 1479 1484 1488 1492 1495 1497 1500 1502 1504 1505 1506 1506 1506 1505 1505 1504 1504 1503 1503 1500 1499 1499 1497 1496 1494 1492 1489 1487 1484
1424 1426 1429 1433 1436 1439 1441 1443 1448 1452 1455 1459 1464 1470 1475 1480 1484 1487 1491 1493 1496 1499 1501 1502 1503 1503 1503 1502 1502 1501 1500 1499 1498 1497 1494 1493 1492 1491 1489 1486 1484 1481 1478
1418 1419 1421 1424 1428 1432 1434 1437 1442 1445 1448 1453 1457 1463 1469 1474 1479 1483 1487 1490 1493 1496 1498 1499 1500 1500 1500 1499 1498 1498 1497 1496 1495 1494 1491 1487 1485 1483 1482 1480 1477 1475 1473